Location: Berlise
(49.6641°N, 4.1077°E)
Time: 23:45:45
(UTC+00:00)

Nadezhda 4 Rocket - Pass Details

Date: 27 January 2021
Orbit: 949 x 993 km, 83.0° (Epoch: 01 March)

Event Time Altitude Azimuth Distance (km) Brightness Sun altitude
Rises 04:39:14 0° 349° (N) 3,639 6.9 -26.3°
Reaches altitude 10° 04:41:44 10° 348° (NNW) 2,687 6.2 -25.9°
Maximum altitude 04:47:52 79° 263° (W) 974 3.8 -24.9°
Drops below altitude 10° 04:53:57 10° 179° (S) 2,671 6.3 -23.9°
Sets 04:56:26 0° 178° (S) 3,615 7.0 -23.5°
